User: anonymous   Login
Location: Lincolnton
(35.4660°N, 81.2500°W)
Time: 19:30:35
(UTC-04:00)
Language:

Hubble Space Telescope - Orbit

View from above orbital plane
View from above orbital plane
View from above satellite
View from above satellite

Ground track
Ground track

The orbit data is extracted from the following two-line orbital elements,

1 20580U 90037B   16241.95116245 +.00000703 +00000-0 +32782-4 0  9997
2 20580 028.4696 138.1684 0002615 270.0219 185.9661 15.08467056246020
Epoch (UTC): 28 August 2016 22:49:40
Eccentricity: 0.0002615
inclination: 28.4696°
perigee height: 539 km
apogee height: 542 km
right ascension of ascending node: 138.1684°
argument of perigee: 270.0219°
revolutions per day: 15.08467056
mean anomaly at epoch: 185.9661°
orbit number at epoch: 24602

The dashed part of the orbit path shows where the satellite is in the earth's shadow,  

DLR